Wind_Speed
4 6 9 11 12 13 13 11 10 10 10 8 7 8 8 8 8 6 4 4 5 7 8 11 15 19 20 18 15 12 9 8 7 8 9 10 10 9 9 8 9 11 11
2 5 8 11 13 14 13 11 10 10 10 9 8 8 9 9 8 7 5 5 6 6 8 10 13 19 22 21 18 15 12 10 8 9 9 9 10 9 7 7 6 9 11
3 4 8 11 13 14 13 11 10 10 10 10 9 9 9 9 8 7 7 7 6 6 7 7 10 17 22 23 20 17 15 13 11 10 9 9 9 9 7 6 5 7 10
4 5 7 10 12 13 12 11 10 10 11 11 11 10 10 10 9 8 8 7 6 5 5 4 4 12 20 24 22 19 17 15 14 12 12 11 11 10 8 7 5 6 8
5 5 7 9 10 11 10 9 9 10 11 11 11 11 11 10 9 9 8 8 6 5 4 4 1 7 16 22 22 20 19 18 18 16 14 12 11 10 8 7 6 6 6
6 6 7 8 9 9 9 8 9 9 10 11 12 12 12 11 10 9 9 8 6 5 4 3 3 4 11 18 19 19 19 20 22 20 16 13 11 10 8 7 6 6 6
7 6 7 8 8 8 7 8 9 9 10 11 12 12 12 11 10 9 9 8 7 6 4 1 1 3 7 11 14 16 16 19 22 22 19 15 12 10 9 8 7 7 6
8 7 6 7 7 7 8 9 10 10 10 11 12 12 13 12 11 10 9 9 8 7 5 4 3 3 5 7 9 11 12 14 17 19 17 14 12 10 7 7 8 8 7
9 7 6 6 6 7 9 10 11 12 12 12 14 14 14 14 13 11 10 9 8 8 7 7 7 7 7 8 9 9 10 11 12 13 11 8 6 7 5 6 9 9 9
8 7 7 6 6 7 9 11 12 13 14 15 16 16 16 16 14 12 10 9 9 9 9 9 10 10 10 10 10 11 10 11 11 11 10 7 4 4 5 6 8 10 11
8 8 7 7 7 7 9 11 12 14 15 16 17 17 17 17 16 13 11 10 10 10 10 10 11 13 13 13 13 13 13 13 13 13 11 9 8 7 7 8 9 10 12
9 9 9 8 8 9 10 12 13 14 15 16 17 18 17 17 17 15 12 11 10 10 9 9 11 14 15 16 16 16 16 16 16 16 14 13 11 10 9 9 9 10 12
10 11 11 11 11 11 12 13 14 15 16 17 18 18 18 18 18 16 12 11 10 10 9 9 11 13 15 17 17 18 18 19 19 19 18 16 15 13 12 11 11 11 13
12 14 14 14 13 13 14 15 15 16 16 18 19 19 19 18 18 16 13 12 10 10 9 9 11 13 14 15 16 17 18 20 21 21 20 19 17 15 14 13 12 13 14
15 17 18 17 16 15 15 15 16 16 16 17 19 19 19 18 18 17 14 12 11 10 10 10 11 13 14 15 15 16 18 19 20 21 21 20 19 17 16 15 14 15 16
17 18 18 18 18 16 16 16 16 17 17 17 18 18 18 18 18 18 16 14 12 12 11 11 12 12 13 14 15 16 17 18 19 20 21 21 20 19 17 16 15 16 18
16 17 16 17 18 18 17 17 17 18 18 18 18 18 18 17 17 18 17 15 13 13 13 13 12 13 13 14 14 14 15 15 17 19 20 21 20 19 17 16 15 16 19
17 16 15 16 17 18 19 19 18 18 18 18 18 18 18 17 17 18 18 17 15 14 14 14 14 14 13 13 13 12 12 13 15 17 18 19 19 19 18 16 15 16 18
18 18 16 16 18 19 19 20 20 20 19 19 19 19 19 19 19 19 20 19 17 15 16 17 16 15 14 13 13 12 11 11 13 15 16 18 19 19 18 16 15 14 15
18 19 19 18 19 20 20 20 21 21 20 20 21 20 21 21 20 20 21 20 18 16 17 18 18 17 16 14 14 12 11 11 11 12 14 16 18 19 18 17 15 14 14
19 20 21 21 21 21 21 20 20 21 20 20 21 22 23 23 22 21 22 22 20 19 19 20 19 19 17 16 15 14 12 11 10 10 11 13 15 16 17 17 16 15 15
21 20 21 21 22 22 22 21 21 21 22 22 22 23 24 25 24 24 24 24 23 21 21 21 21 21 20 19 17 15 13 12 9 8 9 10 13 14 15 15 16 15 15
21 21 21 21 21 22 22 21 22 22 23 23 24 25 26 27 26 25 24 25 25 24 22 20 20 23 22 21 19 18 15 13 10 8 7 8 10 11 12 13 14 15 15
22 22 21 21 20 20 20 21 22 23 23 24 26 27 28 28 28 27 26 26 26 25 22 21 18 19 21 21 20 19 19 17 14 10 8 7 7 9 10 11 13 16 17
23 22 20 19 19 19 19 20 22 24 25 26 27 28 29 29 28 26 26 26 27 25 23 20 19 19 20 21 21 20 20 20 18 14 11 9 8 8 9 10 12 14 16
22 20 19 19 20 20 21 22 23 25 27 27 28 28 28 27 26 25 25 26 26 25 23 22 21 20 20 21 23 23 22 22 22 18 15 13 11 10 9 10 11 12 14
Wind_Direction
23 19 10 7 5 6 5 1 2 4 5 3 2 4 0 352 348 341 322 299 286 276 267 254 234 222 215 211 211 210 205 199 176 163 164 172 177 185 197 209 222 221 216
343 2 359 359 359 359 0 0 360 1 2 359 353 354 353 348 344 343 337 318 305 299 292 273 236 220 213 208 208 208 207 206 195 180 176 179 181 183 185 195 208 213 210
283 333 346 352 354 353 355 358 359 0 360 356 348 343 343 341 338 338 343 339 327 322 319 294 235 214 209 207 204 206 208 208 206 199 195 193 192 191 192 192 197 196 205
268 308 331 343 349 351 351 355 357 357 357 355 348 340 336 334 332 329 335 342 339 337 337 330 230 209 206 203 203 206 210 212 213 212 209 206 201 198 201 202 194 187 194
264 297 319 333 342 348 351 354 353 350 350 351 346 339 332 328 323 320 323 332 332 336 351 15 92 200 203 201 205 209 215 221 222 218 215 216 205 195 200 203 192 191 196
261 287 310 325 336 343 352 357 351 344 341 342 340 336 332 325 316 310 311 320 324 325 338 26 76 156 194 199 205 211 219 225 223 218 213 214 202 188 195 203 204 207 211
256 276 299 316 331 344 355 3 358 346 338 334 333 333 331 323 315 304 299 306 313 309 306 322 108 141 180 195 206 216 224 222 220 216 213 206 194 188 196 208 219 224 228
251 267 290 313 332 353 1 3 1 352 340 332 329 330 329 324 317 307 295 293 299 295 281 258 213 180 175 186 195 204 207 207 204 206 203 200 194 187 201 221 231 237 239
247 259 284 307 331 350 0 3 2 354 344 333 327 326 327 327 322 310 296 286 286 285 271 249 229 213 203 199 199 197 192 192 190 193 200 205 209 190 203 237 238 238 241
241 254 276 293 316 339 356 2 1 355 347 337 329 324 323 324 323 314 300 286 279 277 268 250 234 223 218 214 209 204 200 197 193 196 204 212 226 218 225 249 250 241 240
236 252 272 285 300 324 341 350 355 354 348 339 331 325 321 320 321 317 304 290 278 274 268 252 237 228 224 223 220 216 214 214 212 213 218 227 235 239 240 248 254 247 238
242 254 272 287 299 312 324 337 344 347 344 338 330 324 321 320 322 320 308 294 281 274 268 254 239 232 229 227 226 225 223 223 226 227 229 236 243 246 247 250 250 245 233
251 258 270 283 297 310 318 326 334 340 344 343 336 328 322 321 323 322 312 298 282 272 266 255 243 237 234 232 231 232 232 231 233 235 237 242 246 247 249 251 248 240 229
260 268 275 281 292 305 315 321 326 333 341 345 343 335 327 324 326 325 315 300 284 269 262 254 246 240 237 236 235 235 236 236 238 240 242 244 246 249 253 254 250 239 226
263 270 279 284 290 298 309 318 321 327 334 341 344 340 331 326 328 328 321 305 287 269 260 254 248 241 240 240 240 239 240 241 243 243 244 245 247 251 256 256 251 239 225
265 270 279 286 292 297 304 312 317 322 327 334 340 340 333 327 326 327 325 314 291 271 262 257 250 244 242 244 245 243 244 247 247 246 245 246 248 251 253 253 248 236 224
271 271 278 287 292 296 302 307 314 320 321 327 333 336 333 327 323 322 321 316 296 274 264 259 251 245 243 246 246 245 247 250 251 248 245 245 246 245 248 248 243 232 223
281 280 284 291 295 298 302 305 309 317 318 319 323 329 328 324 318 316 315 312 300 279 263 257 251 246 244 246 245 245 249 253 254 249 245 244 242 241 244 245 238 229 224
289 288 290 295 296 299 301 304 307 313 315 314 314 318 319 317 312 308 308 305 299 282 264 255 251 247 243 242 241 243 249 257 261 253 246 242 240 242 244 242 233 226 223
286 288 292 295 296 297 301 304 305 309 310 307 305 306 308 305 303 299 302 302 296 282 264 254 249 246 241 239 238 242 250 264 270 259 247 241 240 242 242 240 234 230 230
280 285 289 293 296 298 302 303 303 302 302 298 296 297 299 300 297 294 294 295 293 286 267 253 247 244 239 237 237 240 246 260 268 261 248 241 238 238 240 239 237 236 236
277 279 284 290 295 299 303 303 301 301 300 300 298 297 296 295 293 291 289 288 288 288 279 257 244 239 236 235 235 235 240 248 257 255 246 238 233 233 234 234 233 234 238
275 277 282 287 292 297 300 299 299 300 300 300 299 297 296 294 291 288 285 284 284 286 282 264 249 238 234 233 231 230 229 234 239 243 240 234 229 227 227 227 227 229 233
272 275 279 286 291 294 296 297 299 300 301 301 300 298 295 293 289 285 281 279 279 281 277 270 257 247 239 235 229 227 226 226 229 230 233 231 228 226 224 224 224 226 228
268 273 278 284 291 295 297 298 299 301 301 301 299 297 294 292 289 284 278 274 274 274 272 266 259 255 248 242 234 228 226 224 226 226 226 226 226 226 226 225 224 224 226
264 271 278 288 293 297 299 299 300 301 301 300 299 297 294 292 289 285 278 272 269 268 264 261 257 256 256 251 243 234 228 225 225 224 224 225 227 229 229 229 229 228 229
Height
5887 5886 5885 5884 5883 5881 5880 5878 5877 5875 5875 5874 5873 5873 5872 5871 5870 5869 5869 5869 5869 5868 5868 5868 5869 5870 5872 5874 5876 5877 5879 5880 5881 5882 5883 5885 5887 5889 5891 5893 5894 5895 5896
5888 5886 5885 5884 5883 5881 5880 5878 5877 5876 5874 5874 5873 5872 5872 5870 5870 5869 5869 5868 5867 5867 5866 5865 5865 5866 5869 5872 5874 5876 5878 5880 5882 5883 5883 5885 5887 5889 5890 5892 5892 5894 5895
5888 5887 5886 5884 5883 5881 5880 5878 5877 5876 5874 5873 5872 5872 5871 5870 5869 5869 5868 5867 5866 5865 5864 5863 5863 5864 5867 5870 5873 5876 5878 5880 5882 5883 5884 5885 5887 5888 5890 5891 5892 5893 5894
5888 5887 5886 5885 5883 5881 5880 5878 5877 5876 5874 5873 5872 5871 5870 5869 5868 5868 5867 5866 5866 5865 5864 5863 5862 5863 5865 5868 5872 5874 5877 5879 5881 5882 5883 5884 5886 5888 5889 5891 5891 5892 5893
5887 5887 5886 5885 5883 5881 5880 5878 5877 5875 5874 5873 5871 5870 5869 5868 5867 5867 5866 5866 5865 5865 5864 5863 5862 5863 5865 5868 5871 5873 5876 5877 5879 5881 5882 5883 5884 5887 5889 5890 5891 5892 5893
5886 5886 5886 5884 5883 5881 5880 5878 5876 5875 5874 5872 5871 5869 5868 5867 5866 5866 5865 5865 5865 5864 5864 5864 5864 5864 5865 5868 5870 5872 5874 5875 5876 5878 5880 5882 5883 5885 5888 5889 5890 5891 5893
5886 5886 5885 5884 5883 5881 5879 5878 5876 5875 5873 5872 5870 5869 5867 5866 5865 5865 5865 5865 5864 5864 5864 5864 5864 5865 5866 5868 5869 5871 5872 5872 5874 5876 5878 5880 5882 5884 5886 5888 5889 5890 5892
5884 5885 5884 5883 5882 5881 5879 5877 5875 5874 5872 5871 5869 5868 5867 5865 5864 5864 5864 5864 5864 5863 5863 5864 5864 5865 5867 5868 5869 5869 5870 5871 5872 5875 5877 5879 5881 5883 5885 5887 5888 5889 5890
5883 5883 5883 5883 5882 5881 5879 5877 5875 5873 5871 5870 5869 5867 5866 5864 5863 5863 5862 5862 5862 5862 5862 5863 5864 5865 5866 5867 5868 5869 5870 5871 5872 5875 5877 5879 5881 5882 5884 5886 5887 5888 5889
5882 5882 5882 5882 5881 5880 5878 5876 5874 5872 5870 5869 5867 5866 5864 5863 5861 5861 5861 5861 5861 5861 5861 5861 5862 5864 5865 5867 5868 5869 5870 5871 5873 5875 5876 5878 5880 5881 5883 5885 5885 5886 5887
5880 5881 5881 5881 5880 5879 5877 5875 5873 5871 5869 5868 5866 5865 5863 5861 5860 5859 5859 5859 5859 5859 5859 5860 5860 5862 5863 5865 5867 5868 5870 5871 5872 5874 5876 5877 5879 5880 5882 5883 5884 5884 5885
5879 5879 5879 5879 5878 5877 5876 5874 5872 5870 5869 5867 5865 5863 5861 5859 5858 5857 5857 5857 5857 5857 5857 5858 5858 5859 5861 5862 5864 5866 5868 5870 5871 5872 5874 5876 5878 5879 5880 5881 5882 5883 5884
5877 5878 5878 5877 5876 5875 5874 5872 5871 5869 5867 5866 5864 5862 5860 5858 5856 5855 5855 5854 5854 5855 5856 5856 5857 5857 5858 5860 5862 5864 5866 5867 5868 5870 5872 5874 5876 5877 5879 5880 5881 5881 5882
5875 5875 5875 5875 5874 5873 5872 5871 5869 5868 5866 5864 5862 5860 5858 5857 5855 5854 5853 5852 5852 5853 5854 5855 5855 5856 5856 5858 5859 5861 5862 5864 5866 5868 5870 5872 5873 5875 5876 5878 5879 5880 5881
5873 5872 5872 5871 5871 5870 5869 5868 5867 5866 5864 5863 5861 5859 5857 5855 5854 5852 5852 5851 5851 5851 5852 5853 5853 5854 5854 5855 5857 5858 5859 5861 5863 5865 5867 5869 5871 5872 5874 5875 5876 5877 5879
5870 5870 5869 5868 5868 5867 5866 5866 5864 5863 5862 5860 5859 5857 5855 5853 5852 5851 5850 5850 5849 5849 5850 5851 5851 5852 5852 5853 5854 5855 5856 5857 5859 5861 5863 5865 5867 5869 5871 5872 5873 5874 5876
5866 5866 5866 5865 5864 5863 5863 5862 5861 5860 5859 5857 5856 5854 5853 5851 5850 5849 5848 5848 5848 5848 5848 5849 5849 5850 5850 5851 5851 5852 5853 5854 5855 5857 5859 5862 5864 5866 5867 5869 5870 5871 5873
5862 5862 5861 5861 5860 5859 5859 5858 5858 5857 5855 5854 5853 5852 5850 5849 5848 5847 5846 5846 5846 5846 5846 5846 5847 5847 5848 5848 5849 5849 5850 5851 5852 5854 5856 5858 5860 5862 5864 5865 5867 5868 5870
5857 5857 5857 5857 5856 5855 5854 5853 5853 5853 5852 5850 5849 5848 5847 5847 5846 5845 5844 5843 5843 5843 5843 5844 5844 5845 5845 5846 5846 5847 5848 5848 5849 5850 5852 5854 5856 5858 5861 5863 5864 5866 5868
5854 5854 5853 5853 5852 5851 5851 5850 5849 5848 5848 5846 5845 5843 5844 5843 5843 5842 5841 5840 5840 5840 5840 5840 5841 5841 5842 5843 5844 5845 5845 5846 5846 5847 5848 5850 5853 5855 5858 5860 5862 5864 5866
5851 5850 5849 5849 5848 5847 5846 5845 5845 5845 5845 5844 5843 5841 5840 5839 5839 5838 5837 5836 5836 5836 5836 5836 5837 5838 5839 5840 5841 5842 5843 5844 5844 5845 5846 5847 5850 5852 5855 5858 5860 5862 5864
5847 5846 5846 5845 5843 5843 5842 5841 5840 5840 5839 5839 5838 5837 5835 5834 5834 5834 5833 5832 5832 5832 5831 5831 5832 5833 5835 5836 5838 5839 5840 5842 5842 5843 5844 5845 5847 5849 5852 5854 5857 5860 5862
5842 5842 5841 5840 5839 5838 5837 5836 5836 5835 5833 5833 5832 5830 5829 5828 5828 5828 5828 5827 5827 5827 5827 5827 5827 5829 5830 5832 5834 5836 5838 5839 5840 5841 5842 5843 5845 5847 5849 5851 5854 5857 5859
5837 5836 5836 5835 5835 5834 5833 5832 5830 5829 5828 5827 5825 5824 5822 5822 5821 5821 5821 5821 5821 5821 5821 5822 5822 5824 5825 5827 5829 5832 5835 5836 5838 5839 5841 5842 5843 5845 5846 5849 5851 5854 5856
5831 5831 5831 5830 5830 5829 5828 5827 5825 5824 5822 5821 5819 5817 5815 5814 5814 5813 5814 5814 5815 5815 5816 5817 5818 5819 5821 5823 5824 5827 5830 5833 5835 5837 5838 5840 5842 5843 5845 5846 5849 5851 5853
5825 5825 5826 5825 5825 5824 5823 5821 5820 5818 5816 5814 5812 5811 5809 5808 5807 5806 5806 5807 5808 5809 5810 5811 5812 5814 5816 5817 5819 5822 5825 5828 5831 5833 5835 5837 5839 5841 5843 5844 5846 5848 5850